Regional Weather Roundup
Issued by NWS

Home | Current Version | Previous Version | Text Only | Print | Product List | Glossary Off
Versions: 1 2 3 4 5 6 7 8 9 10 11 12 13 14 15 16 17 18 19 20 21 22 23 24 25 26 27 28 29 30 31 32 33 34 35 36 37 38 39 40 41 42 43 44 45 46 47 48 49 50

055
ASUS43 KBIS 171810
RWRND

NORTH DAKOTA REGIONAL WEATHER ROUNDUP
NATIONAL WEATHER SERVICE BISMARCK ND
100 PM CDT TUE OCT 17 2017

NOTE: "FAIR" INDICATES FEW OR NO CLOUDS BELOW 12,000 FEET WITH NO
SIGNIFICANT WEATHER AND/OR OBSTRUCTIONS TO VISIBILITY.


NDZ001>003-009>011-017-171900-
NORTHWEST NORTH DAKOTA

CITY           SKY/WX    TMP DP  RH WIND       PRES   REMARKS
WILLISTON      SUNNY     69  35  28 SW15      29.79F
6HR MIN TEMP:  43; 6HR MAX TEMP:  69;

MINOT          SUNNY     72  30  21 SW17      29.76F
MINOT AFB      SUNNY     70  30  23 W17       29.73F
$$

NDZ018>021-031>035-040>046-171900-
SOUTHWEST NORTH DAKOTA

CITY           SKY/WX    TMP DP  RH WIND       PRES   REMARKS
BISMARCK       SUNNY     73  31  21 W14       29.87F
6HR MIN TEMP:  30; 6HR MAX TEMP:  73;

GARRISON         N/A     69  34  27 SW10      29.81F
6HR MIN TEMP:  42; 6HR MAX TEMP:  69;

HETTINGER ARPT SUNNY     73  25  16 W16       29.94F
$$

NDZ004>008-012>016-024-026-027-054-171900-
NORTHEAST NORTH DAKOTA

CITY           SKY/WX    TMP DP  RH WIND       PRES   REMARKS
GRAND FORKS    MOSUNNY   72  38  29 SW15G25   29.80F
GRND FRKS AFB  SUNNY     71  35  27 SW20      29.79F
DEVILS LAKE    SUNNY     66  36  32 SW13      29.79F
$$

NDZ022-023-025-028>030-036>039-047>053-171900-
SOUTHEAST NORTH DAKOTA

CITY           SKY/WX    TMP DP  RH WIND       PRES   REMARKS
FARGO          CLOUDY    67  42  40 S13       29.87F
6HR MIN TEMP:  37; 6HR MAX TEMP:  67;

JAMESTOWN      SUNNY     74  33  22 SW16      29.84F
$$





USA.gov is the U.S. government's official web portal to all federal, state and local government web resources and services.